CW6099 Weather Reports


Display with metric or nautical units.
time (UTC)temp
F
wind
direction
speed
MPH
gust
MPH
rain 1hr
in
rain 24hr
in
rain mn
in
humidity
%
barometer
mb
20260505095429 43 65 12.0 19.0 0.00 0.00 0.00 88 1010.2
20260505095320 43 26 14.0 19.0 0.00 0.00 0.00 88 1010.1
20260505094414 43 10 8.0 15.0 0.00 0.00 0.00 89 1010.3
20260505094328 43 15 8.0 15.0 0.00 0.00 0.00 89 1010.3
20260505093419 44 58 11.0 18.0 0.00 0.00 0.00 89 1009.8
20260505093332 44 36 12.0 18.0 0.00 0.00 0.00 89 1009.8
20260505092440 44 44 11.0 18.0 0.00 0.00 0.00 88 1009.7
20260505092312 44 81 12.0 18.0 0.00 0.00 0.00 88 1009.7
20260505091425 44 38 14.0 22.0 0.00 0.00 0.00 87 1009.4
20260505091317 44 46 14.0 22.0 0.00 0.00 0.00 87 1009.4
20260505090449 45 59 15.0 22.0 0.00 0.00 0.00 88 1009.1
20260505090342 45 51 14.0 22.0 0.00 0.00 0.00 88 1009.1
20260505085433 45 43 14.0 20.0 0.00 0.00 0.00 88 1009.1
20260505085345 45 64 13.0 20.0 0.00 0.00 0.00 88 1009.1
20260505084418 46 45 15.0 23.0 0.00 0.00 0.00 88 1009.3
20260505084310 46 42 13.0 22.0 0.00 0.00 0.00 88 1009.3
20260505083420 46 69 17.0 22.0 0.00 0.00 0.00 86 1009.1
20260505083335 46 36 16.0 25.0 0.00 0.00 0.00 86 1009.1
20260505082425 46 52 16.0 26.0 0.00 0.00 0.00 85 1009.1
20260505082317 46 36 16.0 26.0 0.00 0.00 0.00 85 1009.1
20260505081409 47 60 18.0 24.0 0.00 0.00 0.00 83 1009.3
20260505081322 47 35 17.0 24.0 0.00 0.00 0.00 83 1009.3
20260505080413 48 48 12.0 17.0 0.00 0.00 0.00 81 1009.5
20260505080309 48 54 12.0 17.0 0.00 0.00 0.00 81 1009.5
20260505075421 49 72 11.0 17.0 0.00 0.00 0.00 78 1009.7
20260505075311 49 69 11.0 17.0 0.00 0.00 0.00 77 1009.7
20260505074424 50 63 9.0 16.0 0.00 0.00 0.00 75 1009.7
20260505074317 50 33 9.0 16.0 0.00 0.00 0.00 74 1009.7
20260505073429 51 51 10.0 16.0 0.00 0.00 0.00 71 1009.8
20260505073321 51 53 9.0 16.0 0.00 0.00 0.00 70 1009.8
20260505072413 51 47 11.0 19.0 0.00 0.00 0.00 68 1009.8
20260505072330 51 26 10.0 19.0 0.00 0.00 0.00 67 1009.7
20260505071417 52 58 14.0 22.0 0.00 0.00 0.00 63 1009.7
20260505071310 52 42 13.0 22.0 0.00 0.00 0.00 63 1009.7
20260505070423 52 56 9.0 21.0 0.00 0.00 0.00 61 1009.7
20260505070315 53 42 10.0 21.0 0.00 0.00 0.00 61 1009.7
20260505065425 53 49 14.0 21.0 0.00 0.00 0.00 59 1009.5
20260505065318 53 42 15.0 21.0 0.00 0.00 0.00 59 1009.5
20260505064430 53 54 15.0 25.0 0.00 0.00 0.00 58 1009.3
20260505064322 53 58 14.0 25.0 0.00 0.00 0.00 58 1009.3
20260505063416 54 48 22.0 28.0 0.00 0.00 0.00 56 1008.9
20260505063310 54 63 22.0 28.0 0.00 0.00 0.00 56 1008.8
20260505062421 54 61 19.0 27.0 0.00 0.00 0.00 56 1008.8
20260505062313 54 63 18.0 27.0 0.00 0.00 0.00 56 1008.8
20260505061425 54 63 19.0 23.0 0.00 0.00 0.00 57 1008.7
20260505061316 54 54 19.0 23.0 0.00 0.00 0.00 57 1008.7
20260505060408 55 41 16.0 28.0 0.00 0.00 0.00 56 1008.9
20260505060321 55 50 18.0 28.0 0.00 0.00 0.00 56 1008.9
20260505055412 56 44 16.0 28.0 0.00 0.00 0.00 52 1008.6
20260505055326 56 50 16.0 28.0 0.00 0.00 0.00 52 1008.6
20260505054418 57 38 17.0 24.0 0.00 0.00 0.00 52 1008.3
20260505054328 57 42 17.0 24.0 0.00 0.00 0.00 52 1008.3
20260505053419 57 71 17.0 30.0 0.00 0.00 0.00 51 1007.9
20260505053313 57 34 18.0 30.0 0.00 0.00 0.00 51 1008.0
20260505052424 57 40 20.0 28.0 0.00 0.00 0.00 51 1007.7
20260505052337 57 49 21.0 28.0 0.00 0.00 0.00 51 1007.8
20260505051428 57 62 19.0 28.0 0.00 0.00 0.00 50 1007.6
20260505051323 57 55 18.0 26.0 0.00 0.00 0.00 51 1007.6
20260505050435 57 51 23.0 33.0 0.00 0.00 0.00 50 1007.2
20260505050327 57 63 24.0 33.0 0.00 0.00 0.00 50 1007.1
20260505041418 59 41 18.0 30.0 0.00 0.00 0.00 48 1006.6
20260505041312 59 65 17.0 30.0 0.00 0.00 0.00 47 1006.7
20260505040423 59 67 22.0 32.0 0.00 0.00 0.00 47 1006.5
20260505040313 59 61 23.0 32.0 0.00 0.00 0.00 47 1006.4
20260505035445 60 49 22.0 30.0 0.00 0.00 0.00 47 1006.4
20260505035317 60 62 22.0 29.0 0.00 0.00 0.00 46 1006.4
20260505034428 60 56 21.0 28.0 0.00 0.00 0.00 46 1006.7
20260505034340 60 51 19.0 28.0 0.00 0.00 0.00 47 1006.7
20260505033411 61 49 20.0 31.0 0.00 0.00 0.00 47 1006.3
20260505033310 61 46 18.0 31.0 0.00 0.00 0.00 47 1006.4
20260505032422 62 54 23.0 33.0 0.00 0.00 0.00 47 1006.3
20260505032314 62 67 23.0 33.0 0.00 0.00 0.00 47 1006.3
20260505031425 63 42 18.0 31.0 0.00 0.00 0.00 49 1005.9
20260505031318 63 56 19.0 32.0 0.00 0.00 0.00 48 1005.9
20260505030428 64 55 27.0 37.0 0.00 0.00 0.00 47 1005.7
20260505030319 64 61 26.0 37.0 0.00 0.00 0.00 47 1005.6
20260505025426 65 65 21.0 36.0 0.00 0.00 0.00 47 1005.4
20260505025342 65 66 23.0 36.0 0.00 0.00 0.00 47 1005.4
20260505024413 65 63 23.0 32.0 0.00 0.00 0.00 46 1005.1
20260505024345 65 66 21.0 32.0 0.00 0.00 0.00 46 1005.0
20260505023435 66 67 24.0 34.0 0.00 0.00 0.00 45 1004.7
20260505023325 66 71 26.0 34.0 0.00 0.00 0.00 45 1004.8
20260505022414 67 40 18.0 30.0 0.00 0.00 0.00 43 1004.5
20260505022328 67 30 19.0 30.0 0.00 0.00 0.00 43 1004.5
20260505021417 68 47 19.0 32.0 0.00 0.00 0.00 41 1003.9
20260505021327 68 53 18.0 32.0 0.00 0.00 0.00 40 1003.9
20260505020419 69 28 14.0 25.0 0.00 0.00 0.00 35 1003.3
20260505020331 69 22 11.0 17.0 0.00 0.00 0.00 35 1003.3
20260505015420 70 41 12.0 21.0 0.00 0.00 0.00 34 1003.1
20260505015317 70 360 15.0 21.0 0.00 0.00 0.00 34 1003.1
20260505014449 71 9 12.0 16.0 0.00 0.00 0.00 33 1002.7
20260505014321 71 355 12.0 16.0 0.00 0.00 0.00 33 1002.7
20260505013432 73 145 2.0 8.0 0.00 0.00 0.00 28 1002.6
20260505013346 73 145 2.0 8.0 0.00 0.00 0.00 28 1002.6
20260505012413 74 160 4.0 11.0 0.00 0.00 0.00 28 1002.6
20260505012323 74 148 3.0 16.0 0.00 0.00 0.00 27 1002.6
20260505011414 74 202 8.0 20.0 0.00 0.00 0.00 27 1002.4
20260505011327 74 180 8.0 20.0 0.00 0.00 0.00 26 1002.4
20260505010419 75 145 6.0 16.0 0.00 0.00 0.00 26 1002.4
20260505010316 75 140 8.0 16.0 0.00 0.00 0.00 26 1002.4
20260505005428 75 139 8.0 15.0 0.00 0.00 0.00 26 1002.5
20260505005320 75 220 6.0 15.0 0.00 0.00 0.00 26 1002.5
20260505004412 76 54 14.0 22.0 0.00 0.00 0.00 25 1002.4
20260505004324 76 63 12.0 22.0 0.00 0.00 0.00 25 1002.4
20260505003413 76 96 11.0 17.0 0.00 0.00 0.00 24 1002.3
20260505003326 76 100 11.0 17.0 0.00 0.00 0.00 24 1002.2
20260505002418 76 78 11.0 18.0 0.00 0.00 0.00 24 1002.3
20260505002314 76 76 10.0 18.0 0.00 0.00 0.00 24 1002.2
20260505001425 76 98 14.0 21.0 0.00 0.00 0.00 25 1002.2
20260505001318 76 84 15.0 21.0 0.00 0.00 0.00 25 1002.2
20260505000429 76 81 15.0 23.0 0.00 0.00 0.00 26 1002.3
20260505000322 76 80 17.0 23.0 0.00 0.00 0.00 26 1002.3
20260504235412 76 88 14.0 22.0 0.00 0.00 0.00 27 1002.3
20260504235325 76 75 14.0 21.0 0.00 0.00 0.00 26 1002.3
20260504234413 77 79 13.0 18.0 0.00 0.00 0.00 26 1002.3
20260504234327 77 90 13.0 18.0 0.00 0.00 0.00 26 1002.3
20260504233419 77 74 7.0 15.0 0.00 0.00 0.00 26 1002.3
20260504233314 78 83 7.0 15.0 0.00 0.00 0.00 25 1002.3
20260504232425 78 59 10.0 14.0 0.00 0.00 0.00 24 1002.1
20260504232338 78 63 10.0 14.0 0.00 0.00 0.00 24 1002.1
20260504231409 78 88 9.0 15.0 0.00 0.00 0.00 23 1002.0
20260504231322 78 79 10.0 15.0 0.00 0.00 0.00 24 1002.0
20260504230413 79 82 7.0 16.0 0.00 0.00 0.00 23 1001.8
20260504230311 79 120 7.0 16.0 0.00 0.00 0.00 23 1001.8
20260504225421 80 88 6.0 10.0 0.00 0.00 0.00 21 1001.8
20260504225334 80 84 4.0 10.0 0.00 0.00 0.00 23 1001.7
20260504224424 80 239 1.0 3.0 0.00 0.00 0.00 20 1001.6
20260504224337 80 67 1.0 2.0 0.00 0.00 0.00 22 1001.6
20260504223425 80 154 1.0 8.0 0.00 0.00 0.00 21 1001.7
20260504223315 80 153 2.0 11.0 0.00 0.00 0.00 22 1001.7
20260504222428 81 81 8.0 14.0 0.00 0.00 0.00 21 1001.7
20260504222320 81 76 7.0 14.0 0.00 0.00 0.00 21 1001.8
20260504221431 82 80 8.0 13.0 0.00 0.00 0.00 20 1001.9
20260504221324 82 80 7.0 12.0 0.00 0.00 0.00 21 1002.0
20260504220418 82 48 1.0 9.0 0.00 0.00 0.00 21 1002.0
20260504220331 82 64 0.0 9.0 0.00 0.00 0.00 19 1002.0
20260504215420 83 78 5.0 13.0 0.00 0.00 0.00 20 1002.2
20260504215314 83 56 6.0 13.0 0.00 0.00 0.00 20 1002.2
20260504214425 83 65 2.0 8.0 0.00 0.00 0.00 19 1002.3
20260504214315 83 142 3.0 8.0 0.00 0.00 0.00 19 1002.3
20260504213428 82 331 3.0 9.0 0.00 0.00 0.00 23 1002.4
20260504213321 82 309 3.0 9.0 0.00 0.00 0.00 21 1002.4
20260504212413 81 28 4.0 9.0 0.00 0.00 0.00 21 1002.5
20260504212310 81 29 4.0 9.0 0.00 0.00 0.00 20 1002.5
20260504211420 81 12 5.0 10.0 0.00 0.00 0.00 21 1002.6
20260504211313 81 340 6.0 10.0 0.00 0.00 0.00 21 1002.6
20260504210425 81 29 5.0 11.0 0.00 0.00 0.00 22 1002.7
20260504210318 81 15 3.0 11.0 0.00 0.00 0.00 22 1002.7
20260504205411 81 333 7.0 11.0 0.00 0.00 0.00 22 1002.7
20260504205323 81 338 7.0 11.0 0.00 0.00 0.00 23 1002.7
20260504204415 81 13 4.0 10.0 0.00 0.00 0.00 22 1002.8
20260504204332 81 38 5.0 10.0 0.00 0.00 0.00 23 1002.8
20260504203421 82 18 7.0 9.0 0.00 0.00 0.00 22 1002.8
20260504203316 82 38 7.0 9.0 0.00 0.00 0.00 21 1002.8
20260504202427 82 30 4.0 11.0 0.00 0.00 0.00 20 1003.0
20260504202315 82 13 4.0 11.0 0.00 0.00 0.00 20 1003.0
20260504201426 83 346 6.0 15.0 0.00 0.00 0.00 19 1003.1
20260504201339 83 350 9.0 15.0 0.00 0.00 0.00 19 1003.1
20260504200429 84 328 6.0 11.0 0.00 0.00 0.00 20 1003.3
20260504200321 84 349 7.0 11.0 0.00 0.00 0.00 21 1003.3
20260504195417 83 301 4.0 11.0 0.00 0.00 0.00 18 1003.3
20260504195330 83 297 4.0 11.0 0.00 0.00 0.00 18 1003.3
20260504194421 83 197 9.0 15.0 0.00 0.00 0.00 17 1003.2
20260504194314 84 216 7.0 12.0 0.00 0.00 0.00 17 1003.3
20260504193446 85 283 2.0 8.0 0.00 0.00 0.00 17 1003.3
20260504193317 85 282 3.0 8.0 0.00 0.00 0.00 19 1003.4
20260504192427 86 145 6.0 17.0 0.00 0.00 0.00 18 1003.5
20260504192320 87 216 6.0 17.0 0.00 0.00 0.00 19 1003.5
20260504191413 85 228 11.0 14.0 0.00 0.00 0.00 23 1003.7
20260504191330 85 250 11.0 14.0 0.00 0.00 0.00 21 1003.7
20260504190422 84 146 4.0 16.0 0.00 0.00 0.00 19 1003.6
20260504190315 84 143 5.0 16.0 0.00 0.00 0.00 19 1003.7
20260504185424 85 234 5.0 14.0 0.00 0.00 0.00 21 1003.8
20260504185318 85 284 3.0 8.0 0.00 0.00 0.00 19 1003.8
20260504184429 85 239 5.0 16.0 0.00 0.00 0.00 21 1004.0
20260504184323 85 236 9.0 16.0 0.00 0.00 0.00 21 1004.0
20260504183415 84 180 8.0 15.0 0.00 0.00 0.00 20 1004.2
20260504183313 84 211 10.0 15.0 0.00 0.00 0.00 21 1004.2
20260504182423 83 225 8.0 14.0 0.00 0.00 0.00 22 1004.3
20260504182316 82 248 5.0 11.0 0.00 0.00 0.00 25 1004.3
20260504181427 81 227 7.0 14.0 0.00 0.00 0.00 23 1004.5
20260504181320 81 259 6.0 20.0 0.00 0.00 0.00 25 1004.6
20260504180423 81 242 15.0 20.0 0.00 0.00 0.00 23 1004.7
20260504180316 81 226 11.0 18.0 0.00 0.00 0.00 23 1004.7
20260504175426 82 266 7.0 10.0 0.00 0.00 0.00 21 1004.8
20260504175321 83 289 6.0 10.0 0.00 0.00 0.00 22 1004.9
20260504174411 84 260 3.0 10.0 0.00 0.00 0.00 20 1005.0
20260504174323 84 286 2.0 10.0 0.00 0.00 0.00 20 1005.0
20260504173435 85 304 8.0 13.0 0.00 0.00 0.00 22 1005.1
20260504173348 85 263 8.0 13.0 0.00 0.00 0.00 21 1005.1
20260504172418 84 309 12.0 16.0 0.00 0.00 0.00 22 1005.2
20260504172312 84 302 9.0 13.0 0.00 0.00 0.00 22 1005.2
20260504171423 85 205 7.0 15.0 0.00 0.00 0.00 20 1005.4
20260504171316 85 265 10.0 15.0 0.00 0.00 0.00 22 1005.4
20260504170428 85 312 7.0 15.0 0.00 0.00 0.00 23 1005.3
20260504170324 85 338 9.0 15.0 0.00 0.00 0.00 23 1005.4
20260504160416 82 263 8.0 16.0 0.00 0.00 0.00 26 1005.5
20260504160307 82 284 8.0 18.0 0.00 0.00 0.00 26 1005.6
20260504150422 73 267 8.0 14.0 0.00 0.00 0.00 37 1005.9
20260504150334 73 236 8.0 14.0 0.00 0.00 0.00 37 1005.9
20260504141314 63 236 5.0 9.0 0.00 0.00 0.00 55 1006.1
20260504140424 62 258 6.0 8.0 0.00 0.00 0.00 56 1006.1
20260504140337 62 267 5.0 8.0 0.00 0.00 0.00 56 1006.1
20260504130410 49 263 5.0 10.0 0.00 0.00 0.00 72 1006.1
20260504130344 49 269 4.0 10.0 0.00 0.00 0.00 72 1006.1
20260504120313 41 285 9.0 11.0 0.00 0.00 0.00 79 1005.6
20260504110426 43 313 7.0 10.0 0.00 0.00 0.00 74 1005.7
20260504110318 43 316 6.0 9.0 0.00 0.00 0.00 74 1005.6
20260504100431 44 26 5.0 10.0 0.00 0.00 0.00 74 1006.1
20260504100322 44 42 7.0 10.0 0.00 0.00 0.00 74 1006.1